{"data":{"norad_id":43113,"epoch":"2026-05-25T00:04:53.620896Z","epoch_age_seconds":70614,"freshness":"FRESH","line1":"1 43113U 18004C   26145.00339839  .00001712  00000+0  12299-3 0  9994","line2":"2 43113  99.2447  60.2705 0351161 150.4977 211.6556 14.67664004434082","mean_motion":14.67664004,"eccentricity":0.0351161,"inclination_deg":99.2447,"raan_deg":60.2705,"arg_perigee_deg":150.4977,"mean_anomaly_deg":211.6556,"bstar":0.00012299,"rev_number":43408,"period_min":98.115099646472,"perigee_km":421.08371335353,"apogee_km":915.9870162114,"semimajor_km":7046.6723647825,"source":"CELESTRAK","updated_at":"2026-05-25T13:37:55.765527Z"}}